Regional Weather Roundup
Issued by NWS

Home | Current Version | Previous Version | Text Only | Print | Product List | Glossary On
Versions: 1 2 3 4 5 6 7 8 9 10 11 12 13 14 15 16 17 18 19 20 21 22 23 24 25 26 27
000
ASUS44 KLIX 212113
RWRLA
LOUISIANA WEATHER ROUNDUP
NATIONAL WEATHER SERVICE NEW ORLEANS LA
300 PM CST SAT JAN 21 2017

NOTE: "FAIR" INDICATES FEW OR NO CLOUDS BELOW 12,000 FEET WITH NO
      SIGNIFICANT WEATHER AND/OR OBSTRUCTIONS TO VISIBILITY.
      SKY/WX - SKY CONDITION AND SIGNIFICANT WEATHER.
      TMP - AIR TEMPERATURE.    DP   - DEWPOINT TEMPERATURE.
      RH  - RELATIVE HUMIDITY.  PRES - PRESSURE.
      HX  - HEAT INDEX.         WCI  - WIND CHILL INDEX.

*  THESE STATIONS ARE NOT NWS OR FAA STATIONS AND ARE NOT UNDER
   NWS QUALITY CONTROL.

LAZ040-048-061>063-065-066-069-212200-
SOUTHEAST LOUISIANA

CITY           SKY/WX    TMP DP  RH WIND       PRES   REMARKS
N.O. AUDUBON   NOT AVBL
N.O. INTL ARPT PTSUNNY   77  69  76 SE12      29.55F
N.O. LAKEFRONT PTSUNNY   72  64  76 E12       29.58F
N.O. DOWNTOWN*   N/A     77  68  73 VRB5      29.57F
RESERVE*       CLOUDY    77  67  71 E5        29.55F
SLIDELL        PTSUNNY   73  62  68 SE9       29.58F
BATON ROUGE    PTSUNNY   74  63  68 E7        29.54F
BOOTHVILLE     CLOUDY    72  70  93 S14       29.62F
BELLE CHASSE   PTSUNNY   78  70  76 S14       29.57F
BOGALUSA*      CLOUDY    76  62  62 S9        29.61F
GALLIANO*      MOCLDY    77  70  78 S14       29.58F
NEW ROADS*     FAIR      72  63  75 E9        29.53F
GONZALES*      CLOUDY    75  66  72 CALM      29.53F
HAMMOND*       MOSUNNY   73  59  60 E8        29.56F
HOUMA*         PTSUNNY   79  70  73 S12G17    29.55F
PORT FOURCHON* MOCLDY    73  72  94 S12       29.58F FOG

$$

LAZ041-044-053-054-212200-
SOUTHWEST LOUISIANA

CITY           SKY/WX    TMP DP  RH WIND       PRES   REMARKS
LAKE CHARLES   CLOUDY    74  67  78 S12G18    29.49F HAZE
LAFAYETTE      MOSUNNY   78  68  71 S12       29.51F
PATTERSON      PTSUNNY   76  70  82 S16       29.54F
SALT POINT     NOT AVBL
NEW IBERIA     PTSUNNY   76  67  73 S13       29.52F HAZE
CHENAULT AIRPK NOT AVBL

$$

LAZ027-028-212200-
CENTRAL LOUISIANA

CITY           SKY/WX    TMP DP  RH WIND       PRES   REMARKS
FORT POLK      CLOUDY    70  66  88 SE9       29.47F
ALEXANDRIA INT CLOUDY    70  63  78 SE13      29.48F
ALEXANDRIA     CLOUDY    72  62  71 SE8       29.50F

$$

LAZ001-002-212200-
NORTHWEST LOUISIANA

CITY           SKY/WX    TMP DP  RH WIND       PRES   REMARKS
SHREVEPORT     CLOUDY    70  63  78 E10       29.41F
BARKSDALE AFB  NOT AVBL
DTN SHREVEPORT PTSUNNY   70  62  76 E7        29.43F

$$

LAZ014-016-212200-
NORTHEAST LOUISIANA

CITY           SKY/WX    TMP DP  RH WIND       PRES   REMARKS
MONROE         CLOUDY    71  59  65 S9        29.52F
TALLULAH       MOSUNNY   72  59  63 SE8       29.53F

$$





USA.gov is the U.S. government's official web portal to all federal, state and local government web resources and services.